Вернуться в каталог

STARLINK-3964

АктивенСвязьVLEO
NORAD 52536·PAYLOAD·🇺🇸 United States

Запущен May 13, 2022 с Vandenberg Space Force Base

Loading…

Ближайшие Пролёты (ближайшие 24 часа)

TLE

СвежийSource: CelesTrak SupGP

Эпоха: Sep 15, 2026, 02:13 UTC

1 52536C 22051D   26258.09284722  .00043437  00000+0  12835-2 0  2587
2 52536  53.1602 346.6542 0001203  89.8327 125.9485 15.34364329    18

Отслеживайте STARLINK-3964 в реальном времени с AllMySat

Download on the App Store